This demonstration page uses our WeatherBlox Daily Observations layout. Learn more.

Left ArrowRight Arrow

44.8408, -93.29828

Hourly Observations for December 20, 2017

Temp ( °F °C ) Dew Point ( °F °C ) Humidity (%) Winds ( mph kmh ) Pressure ( in mb ) Visibility ( mi km ) Precip ( " mm )
12:53 am 00:53 Cloudy 23 -5 13 -10.6 65 65 NNW 13 20 30.22 1023 10 16 0.00 0.00
1:53 am 01:53 Cloudy 23 -5 13 -10.6 65 65 NNW 8 13 30.22 1024 10 16 0.00 0.00
2:53 am 02:53 Cloudy 22 -5.6 11 -11.7 63 63 NNW 10 17 30.23 1024 10 16 0.00 0.00
3:53 am 03:53 Cloudy 21 -6.1 9 -12.8 59 59 N 8 13 30.22 1023 10 16 0.00 0.00
4:53 am 04:53 Cloudy 19 -7.2 9 -12.8 65 65 NNE 10 17 30.22 1023 10 16 0.00 0.00
5:53 am 05:53 Cloudy 19 -7.2 8 -13.3 62 62 NE 6 9 30.23 1024 10 16 0.00 0.00
6:53 am 06:53 Cloudy 18 -7.8 9 -12.8 68 68 ENE 8 13 30.24 1024 10 16 0.00 0.00
7:53 am 07:53 Cloudy 18 -7.8 9 -12.8 68 68 NE 7 11 30.25 1024 10 16 0.00 0.00
8:53 am 08:53 Cloudy 18 -7.8 9 -12.8 68 68 E 9 15 30.24 1024 10 16 0.00 0.00
9:53 am 09:53 Cloudy 19 -7.2 9 -12.8 65 65 ENE 7 11 30.24 1024 10 16 0.00 0.00
10:53 am 10:53 Cloudy 19 -7.2 9 -12.8 65 65 ENE 6 9 30.25 1024 10 16 0.00 0.00
11:53 am 11:53 Cloudy 19 -7.2 9 -12.8 65 65 ENE 8 13 30.23 1024 10 16 0.00 0.00
12:46 pm 12:46 Cloudy 19 -7.2 8 -13.3 62 62 E 12 19 30.21 1023 10 16 0.00 0.00
12:53 pm 12:53 Cloudy 19 -7.2 8 -13.3 62 62 E 10 17 30.18 1022 10 16 0.00 0.00
1:47 pm 13:47 Cloudy with Light Snow 18 -8 12 -11 79 79 E 13 20 30.15 1021 2 2 0.00 0.03
1:53 pm 13:53 Cloudy with Light Snow 18 -7.8 12 -11.1 77 77 E 10 17 30.18 1022 1 2 0.00 0.03
2:07 pm 14:07 Cloudy with Light Snow 18 -7.8 14 -10 84 84 E 9 15 30.15 1021 2 3 0.01 0.25
2:24 pm 14:24 Cloudy with Light Snow 18 -7.8 15 -9.4 88 88 ESE 13 20 30.15 1021 4 6 0.01 0.25
2:53 pm 14:53 Cloudy 18 -7.8 14 -10 84 84 ESE 6 9 30.13 1020 10 16 0.01 0.25
3:29 pm 15:29 Cloudy 18 -7.8 14 -10 84 84 E 8 13 30.15 1021 10 16 0.00 0.00
3:53 pm 15:53 Cloudy 19 -7.2 14 -10 81 81 E 8 13 30.13 1020 10 16 0.00 0.00
4:53 pm 16:53 Cloudy 19 -7.2 14 -10 81 81 E 9 15 30.11 1020 10 16 0.00 0.00
5:20 pm 17:20 Cloudy 19 -7.2 14 -10 81 81 E 12 19 30.12 1020 10 16 0.00 0.00
5:53 pm 17:53 Cloudy 19 -7.2 14 -10 81 81 E 9 15 30.12 1020 10 16 0.00 0.00
6:41 pm 18:41 Cloudy 19 -7.2 15 -9.4 84 84 E 12 19 30.12 1020 10 16 0.00 0.00
6:53 pm 18:53 Cloudy 19 -7.2 14 -10 81 81 E 12 19 30.11 1020 10 16 0.00 0.00
7:53 pm 19:53 Cloudy 20 -6.7 14 -10 78 78 E 12 19 30.10 1019 10 16 0.00 0.00
8:53 pm 20:53 Cloudy 19 -7.2 14 -10 81 81 ENE 10 17 30.09 1019 10 16 0.00 0.00
9:53 pm 21:53 Cloudy 19 -7.2 14 -10 81 81 E 10 17 30.11 1020 10 16 0.00 0.00
10:53 pm 22:53 Cloudy 19 -7.2 14 -10 81 81 ENE 7 11 30.11 1020 10 16 0.00 0.00
11:53 pm 23:53 Cloudy 19 -7.2 14 -10 81 81 E 8 13 30.12 1020 10 16 0.00 0.00

Powered by AerisWeather